Regional Weather Roundup
Issued by NWS Wilmington, NC

Current Version | Previous Version | Text Only | Print | Product List | Glossary On
Versions: 1 2 3 4 5 6 7 8 9 10 11 12 13 14 15 16 17 18 19 20 21 22 23 24 25 26 27
000
ASUS42 KILM 251013
RWRILM
RWRILM
REGIONAL HOURLY WEATHER ROUNDUP
NATIONAL WEATHER SERVICE WILMINGTON NC
600 AM EDT SUN SEP 25 2016

NOTE: "FAIR" INDICATES FEW OR NO CLOUDS BELOW 12,000 FEET WITH NO
SIGNIFICANT WEATHER AND/OR OBSTRUCTIONS TO VISIBILITY.

...............WFO WILMINGTON COUNTY WARNING AREA...............

......COASTAL NC AND SC COUNTIES......

CITY           SKY/WX    TMP DP  RH WIND       PRES   REMARKS
WILMINGTON     CLEAR     69  69 100 NE5       30.07R FOG
N MYRTLE BEACH CLEAR     68  68 100 NE3       30.06R FOG
MYRTLE BEACH   CLEAR     72  63  73 N5        30.07S

......INLAND NC AND SC COUNTIES.......

CITY           SKY/WX    TMP DP  RH WIND       PRES   REMARKS
LUMBERTON      CLEAR     69  67  93 N3        30.07R
ELIZABETHTOWN  CLOUDY    71  71 100 CALM      30.09R FOG
WHITEVILLE     NOT AVBL
FLORENCE       CLEAR     69  67  93 N3        30.08R
DARLINGTON     CLEAR     67  66  97 CALM      30.09R
KINGSTREE      FOG       64  64 100 CALM      30.06S VSB 1/4
HARTSVILLE     FAIR      66  66 100 CALM      30.07S
BENNETTSVILLE  FAIR      68  68 100 CALM      30.08R FOG
CONWAY         FOG       64  64 100 CALM      30.07R VSB 1/2
GEORGETOWN     FOG       66  66 100 CALM      30.06R VSB 1/2
MARION         FAIR      64  64 100 CALM      30.07R FOG

....................REST OF NORTH CAROLINA......................

.........EASTERN NC.........

CITY           SKY/WX    TMP DP  RH WIND       PRES   REMARKS
CAPE HATTERAS  CLOUDY    74  68  81 VRB6      30.07R
JACKSONVILLE   PTCLDY    70  70 100 N5        30.09R FOG
MOREHEAD CITY  CLOUDY    74  71  91 N8        30.08R
KENANSVILLE    MOCLDY    70  70 100 CALM      30.10R FOG
NEW BERN       CLOUDY    73  68  84 NE7       30.10R
ELIZABETH CITY CLOUDY    70  65  84 NE13      30.12R

.........CENTRAL NC.........

CITY           SKY/WX    TMP DP  RH WIND       PRES   REMARKS
RALEIGH DURHAM CLOUDY    72  68  87 E8        30.12R
ROCKY MOUNT    CLOUDY    70  68  93 NE5       30.12R
ROANOKE RAPIDS NOT AVBL
FAYETTEVILLE   FOG       70  69  97 NE5       30.08S VSB 1/2
HOFFMAN        CLEAR     67  66  96 N3        30.08S

.........WESTERN NC.........

CITY           SKY/WX    TMP DP  RH WIND       PRES   REMARKS
CHARLOTTE      PTCLDY    66  63  90 N5        30.10R
GREENSBORO     CLOUDY    70  69  97 NE9       30.13R FOG
HICKORY        NOT AVBL
BOONE          NOT AVBL
ASHEVILLE      NOT AVBL

.....................REST OF SOUTH CAROLINA.....................

.........EASTERN SC.........

CITY           SKY/WX    TMP DP  RH WIND       PRES   REMARKS
CHARLESTON     CLEAR     71  69  93 N6        30.04R
BEAUFORT MCAS  CLOUDY    75  73  93 N5        30.04R
HILTON HEAD    NOT AVBL

.........CENTRAL SC.........

CITY           SKY/WX    TMP DP  RH WIND       PRES   REMARKS
COLUMBIA       CLEAR     67  64  90 S3        30.06R
ORANGEBURG     MOCLDY    70  69  97 CALM      30.07R FOG
SUMTER SHAW    CLEAR     67  65  93 N1        30.04R

.........WESTERN SC.........

CITY           SKY/WX    TMP DP  RH WIND       PRES   REMARKS
GREENVILLE     NOT AVBL
ROCK HILL      CLEAR     65  64  97 CALM      30.10R
ANDERSON       CLEAR     66  62  87 CALM      30.09R
CLEMSON        NOT AVBL
GREENWOOD      PTCLDY    65  61  87 CALM      30.11R


...................COASTAL AND OFFSHORE REPORTS..................

................LOCAL PIERS AND NC RESERVE................


STATION/POSITION TIME  SKY/WX   TEMP    WIND        PRES    VSBY
                                AIR SEA DIR/SP/G
                 (UTC)          (F)     (DEG/KT/KT) (MB)    (MI)
JOHNY MRCER PIER 0948            73 82   10/  7/  8 1017.2R
NC RESRV MASNBRO 0845            72     330/  1     1016.0
OCEAN CREST PIER NOT AVBL
SPRINGMAID  PIER 0948            72 83  300/  5/  6 1017.3R


................COASTAL AND OFFSHORE BUOYS................


STATION/POSITION TIME  SKY/WX   TEMP    WIND        PRES    VSBY
                                AIR SEA DIR/SP/G
                 (UTC)          (F)     (DEG/KT/KT) (MB)    (MI)
DIMNDSHOAL 41025 0950            76 85   20/ 16/ 17 1017.4R
WVE H/P(F/S)=  6/11 SWL H/P/D(F/S/D)=  5/120/11

CAPE LOOKOUT     1000            77      50/ 14/ 15 1017.9R
ONSLOW BAY 41036 NOT AVBL
ONSLOW BAY 41064 0908            79 82   60/ 14/ 17 1017.4R
ONSLOW BAY 41159 0955               82                N/A
WVE H/P(F/S)=  4/11 SWL H/P/D(F/S/D)=  2/120/11

5SE WRITBC 41038 0908            80 81   70/ 10/ 14 1018.3R
MASNBO INL 41110 0959               81                N/A
WVE H/P(F/S)=  3/12 SWL H/P/D(F/S/D)=  2/110/12

WILM HARBR 41108 0956               81                N/A
WVE H/P(F/S)=  3/11 SWL H/P/D(F/S/D)=  2/140/11

27SE WRITB 41037 0908            80 81   50/ 14/ 17 1017.3R
FRYING PAN 41013 0950            81 82   50/ 12/ 16 1016.9R
WVE H/P(F/S)=  4/12 SWL H/P/D(F/S/D)=  3/110/12

SUNST NRSH 41024 0908            77 81   40/  6/  8 1017.0R
CAPRS NRSH 41029 0908            78 81   10/  8/ 10 1016.5R
EDISTO     41004 0950            80 82   40/ 12/ 14 1016.0R
WVE H/P(F/S)=  3/11 SWL H/P/D(F/S/D)=  3/100/11



..........OFFSHORE BUOYS BEYOND 100 NM OFFSHORE...........
.....IN A TRIANGLE---HAT TO BERMUDA TO BAHAMAS TO HAT.....


STATION/POSITION TIME  SKY/WX   TEMP    WIND        PRES    VSBY
                                AIR SEA DIR/SP/G
                 (UTC)          (F)     (DEG/KT/KT) (MB)    (MI)
150E HAT   41001 NOT AVBL
W BERMUDA  41048 0950            82 84  350/ 10/ 12 1013.7R
WVE H/P(F/S)=  3/ 9 SWL H/P/D(F/S/D)=  3/110/ 9

ATLANTIC S 41049 0950            82 83  310/ 10/ 12 1013.9R
WVE H/P(F/S)=  7/10 SWL H/P/D(F/S/D)=  7/350/10

E BAHAMAS  41046 0950            84 86   50/  4/  6 1014.4R
WVE H/P(F/S)=  5/ 8 SWL H/P/D(F/S/D)=  5/ 40/ 8

NE BAHAMAS 41047 0950            83 86  310/  6/ 10 1014.6R
WVE H/P(F/S)=  5/ 9 SWL H/P/D(F/S/D)=  5/ 90/ 9

120E CANVRL41010 NOT AVBL

END




USA.gov is the U.S. government's official web portal to all federal, state and local government web resources and services.